| time (UTC) | temp F | wind direction | speed MPH | gust MPH | rain 1hr in | rain 24hr in | rain mn in | humidity % | barometer mb |
| 20260504011525 | 51 | 360 | 3.0 | 7.0 | 0.00 | 0.00 | 0.00 | 97 | 945.4 |
| 20260504010028 | 51 | 336 | 4.0 | 8.0 | 0.00 | 0.00 | 0.00 | 97 | 945.4 |
| 20260504004524 | 51 | 18 | 4.0 | 9.0 | 0.00 | 0.00 | 0.00 | 97 | 945.1 |
| 20260504003030 | 51 | 355 | 5.0 | 10.0 | 0.00 | 0.00 | 0.00 | 97 | 945.2 |
| 20260504001521 | 51 | 42 | 4.0 | 12.0 | 0.00 | 0.00 | 0.00 | 97 | 945.3 |
| 20260504000018 | 51 | 47 | 6.0 | 8.0 | 0.00 | 0.00 | 0.00 | 97 | 945.4 |
| 20260503234530 | 51 | 12 | 5.0 | 8.0 | 0.00 | 0.00 | 0.00 | 97 | 945.6 |
| 20260503233015 | 51 | 33 | 6.0 | 10.0 | 0.00 | 0.00 | 0.00 | 97 | 945.5 |
| 20260503231514 | 51 | 50 | 5.0 | 10.0 | 0.00 | 0.00 | 0.00 | 97 | 945.6 |
| 20260503230012 | 51 | 40 | 5.0 | 10.0 | 0.00 | 0.00 | 0.00 | 97 | 945.5 |
| 20260503224508 | 52 | 45 | 6.0 | 10.0 | 0.00 | 0.00 | 0.00 | 97 | 945.6 |
| 20260503223006 | 53 | 84 | 2.0 | 7.0 | 0.00 | 0.00 | 0.00 | 98 | 945.4 |
| 20260503221504 | 52 | 30 | 3.0 | 6.0 | 0.00 | 0.00 | 0.00 | 97 | 945.4 |
| 20260503220101 | 52 | 57 | 2.0 | 3.0 | 0.00 | 0.00 | 0.00 | 98 | 945.3 |
| 20260503214601 | 52 | 113 | 1.0 | 2.0 | 0.00 | 0.00 | 0.00 | 97 | 945.0 |
| 20260503213109 | 52 | 113 | 0.0 | 2.0 | 0.00 | 0.00 | 0.00 | 97 | 945.0 |
| 20260503211559 | 52 | 287 | 1.0 | 3.0 | 0.00 | 0.00 | 0.00 | 97 | 944.9 |
| 20260503210109 | 52 | 76 | 0.0 | 1.0 | 0.00 | 0.00 | 0.00 | 97 | 944.9 |
| 20260503204608 | 52 | 76 | 0.0 | 1.0 | 0.00 | 0.00 | 0.00 | 96 | 944.6 |
| 20260503203103 | 52 | 76 | 0.0 | 3.0 | 0.00 | 0.00 | 0.00 | 96 | 944.4 |
| 20260503201558 | 52 | 45 | 2.0 | 4.0 | 0.00 | 0.00 | 0.00 | 96 | 944.4 |
| 20260503200058 | 53 | 54 | 3.0 | 5.0 | 0.00 | 0.00 | 0.00 | 96 | 944.4 |
| 20260503194553 | 53 | 59 | 3.0 | 5.0 | 0.00 | 0.00 | 0.00 | 96 | 944.4 |
| 20260503193056 | 53 | 82 | 2.0 | 3.0 | 0.00 | 0.00 | 0.00 | 96 | 944.4 |
| 20260503191608 | 53 | 42 | 2.0 | 5.0 | 0.00 | 0.00 | 0.00 | 95 | 944.0 |
| 20260503190051 | 54 | 46 | 2.0 | 3.0 | 0.00 | 0.00 | 0.00 | 95 | 943.9 |
| 20260503184558 | 54 | 355 | 3.0 | 6.0 | 0.00 | 0.00 | 0.00 | 95 | 943.6 |
| 20260503183110 | 53 | 212 | 2.0 | 5.0 | 0.00 | 0.00 | 0.00 | 95 | 943.3 |
| 20260503181550 | 54 | 127 | 1.0 | 3.0 | 0.00 | 0.00 | 0.00 | 95 | 943.3 |
| 20260503180049 | 54 | 180 | 2.0 | 8.0 | 0.00 | 0.00 | 0.00 | 95 | 943.8 |
| 20260503174548 | 54 | 294 | 7.0 | 9.0 | 0.00 | 0.00 | 0.00 | 95 | 943.6 |
| 20260503173112 | 54 | 140 | 6.0 | 11.0 | 0.00 | 0.00 | 0.00 | 94 | 943.6 |
| 20260503171549 | 54 | 124 | 6.0 | 11.0 | 0.00 | 0.00 | 0.00 | 94 | 943.8 |
| 20260503081500 | 57 | 231 | 2.0 | 5.0 | 0.00 | 0.00 | 0.00 | 89 | 946.3 |
| 20260503071551 | 55 | 184 | 2.0 | 6.0 | 0.00 | 0.00 | 0.00 | 94 | 946.3 |
| 20260503070103 | 54 | 196 | 1.0 | 4.0 | 0.00 | 0.00 | 0.00 | 94 | 946.4 |
| 20260503054545 | 52 | 223 | 1.0 | 4.0 | 0.00 | 0.00 | 0.00 | 96 | 946.1 |
| 20260503053042 | 52 | 248 | 1.0 | 3.0 | 0.00 | 0.00 | 0.00 | 95 | 945.9 |
| 20260503051540 | 53 | 265 | 2.0 | 4.0 | 0.00 | 0.00 | 0.00 | 95 | 945.9 |
| 20260503050038 | 53 | 176 | 1.0 | 4.0 | 0.00 | 0.00 | 0.00 | 95 | 945.8 |
| 20260503044537 | 53 | 232 | 3.0 | 4.0 | 0.00 | 0.00 | 0.00 | 95 | 945.9 |
| 20260503043041 | 53 | 242 | 1.0 | 6.0 | 0.00 | 0.00 | 0.00 | 95 | 945.9 |
| 20260503041536 | 53 | 212 | 1.0 | 3.0 | 0.00 | 0.00 | 0.00 | 94 | 945.8 |
| 20260503040045 | 53 | 178 | 1.0 | 6.0 | 0.00 | 0.00 | 0.00 | 95 | 946.0 |
| 20260503034545 | 53 | 194 | 2.0 | 5.0 | 0.00 | 0.00 | 0.00 | 94 | 946.0 |
| 20260503033039 | 53 | 179 | 2.0 | 5.0 | 0.00 | 0.00 | 0.00 | 94 | 946.1 |
| 20260503031538 | 54 | 192 | 1.0 | 6.0 | 0.00 | 0.00 | 0.00 | 94 | 946.1 |
| 20260503030038 | 54 | 217 | 2.0 | 4.0 | 0.00 | 0.00 | 0.00 | 94 | 946.1 |
| 20260503024529 | 54 | 223 | 2.0 | 5.0 | 0.00 | 0.00 | 0.00 | 94 | 946.1 |
| 20260503023028 | 54 | 238 | 2.0 | 8.0 | 0.00 | 0.00 | 0.00 | 94 | 946.2 |
| 20260503021532 | 54 | 153 | 4.0 | 11.0 | 0.00 | 0.00 | 0.00 | 94 | 946.3 |
| 20260503020026 | 54 | 224 | 8.0 | 16.0 | 0.00 | 0.00 | 0.00 | 93 | 946.4 |
| 20260503014523 | 54 | 132 | 8.0 | 17.0 | 0.00 | 0.00 | 0.00 | 93 | 946.3 |
| 20260503013022 | 54 | 140 | 9.0 | 16.0 | 0.00 | 0.00 | 0.00 | 93 | 946.5 |